Location: Agadir Mansour Mhndou
(31.2424°N, 8.7730°W)
Time: 06:40:32
(UTC+00:00)

CSL-04 Rocket - Pass Details

Date: 16 October 2021
Orbit: 805 x 860 km, 98.9° (Epoch: 28 November)

Event Time Altitude Azimuth Distance (km) Brightness Sun altitude
Exits shadow 19:30:11 30° 59° (ENE) 1,471 4.5 -19.6°
Drops below altitude 10° 19:34:27 10° 10° (N) 2,493 6.1 -20.5°
Sets 19:37:04 0° 0° (N) 3,437 6.9 -21.1°
